Overview Statistics Trail Chart Weather Telemetry Raw packets
 

This is the latest recevied weather packets stored in our database for station/object 9A7DI-13. If no packets are shown the sender has not sent any weather packets the latest 10 day(s).

<< 22 23 24 25 26 27 28 >>
Time Temp. Humidity Pressure Rain* Wind** Luminosity Snow
1788329205 17.22° C 75% 1029.8 hPa - - - -
1788328605 16.67° C 78% 1029.9 hPa - - - -
1788328005 16.11° C 80% 1030 hPa - - - -
1788327405 15° C 83% 1029.9 hPa - - - -
1788326805 14.44° C 84% 1029.8 hPa - - - -
1788326205 13.89° C 88% 1029.8 hPa - - - -
1788325605 13.33° C 90% 1029.7 hPa - - - -
1788325005 12.78° C 91% 1029.7 hPa - - - -
1788324405 12.78° C 91% 1029.6 hPa - - - -
1788323805 12.78° C 91% 1029.5 hPa - - - -
1788323205 12.22° C 92% 1029.5 hPa - - - -
1788322605 12.22° C 91% 1029.4 hPa - - - -
1788322005 12.78° C 91% 1029.4 hPa - - - -
1788321405 12.22° C 91% 1029.2 hPa - - - -
1788320812 12.78° C 91% 1029.2 hPa - - - -
1788320205 12.78° C 91% 1029.2 hPa - - - -
1788319606 12.22° C 90% 1029.1 hPa - - - -
1788319005 12.78° C 91% 1029.1 hPa - - - -
1788318405 12.78° C 90% 1029.2 hPa - - - -
1788317806 12.78° C 90% 1029.2 hPa - - - -
1788317205 12.78° C 89% 1029.2 hPa - - - -
1788316606 13.33° C 90% 1029.2 hPa - - - -
1788316006 13.33° C 91% 1029.2 hPa - - - -
1788315406 12.78° C 90% 1029.3 hPa - - - -
1788314806 13.33° C 89% 1029.3 hPa - - - -

* Rain since midnight (hover to see other rain measurements)
** Current wind speed in m/s (hover to see current wind gust speed)